GFSSE_con_3kmhel_219.txt.gz
Helicity
84 99 112 123 89 66 70 67 49 42 39 25 25 28 41 54 57 53 50 47 41 40 41 32 24 18 15 19 24 24 26 30 30 34 38 42 39 42 56 32 15 9 16
131 114 144 146 93 68 76 72 53 56 52 43 35 38 48 58 62 54 42 30 32 33 30 31 22 15 12 17 17 15 19 33 32 32 40 35 31 33 34 26 9 4 16
162 145 156 140 90 63 78 77 56 57 59 57 47 41 49 57 62 54 45 36 24 36 32 30 23 20 14 10 11 2 10 27 21 14 29 20 12 29 30 26 14 13 19
134 154 144 134 110 78 73 70 54 57 62 64 57 49 50 56 61 61 51 44 31 27 30 32 31 26 16 11 5 -14 -18 7 10 -1 -6 -5 16 24 34 34 32 28 23
116 138 155 155 128 104 73 72 64 56 56 61 59 57 54 51 58 68 65 55 46 30 30 29 33 33 17 13 2 -21 -29 -5 -1 15 22 18 31 24 39 50 40 45 33
82 137 138 130 124 98 82 77 76 60 54 57 63 62 55 55 53 61 61 58 53 41 36 27 27 23 16 9 5 -20 -29 -1 -8 10 28 77 46 50 53 58 52 48 41
47 93 114 121 110 97 103 97 80 74 63 60 63 63 66 59 60 56 56 52 48 40 52 31 22 13 7 -4 -12 -22 -27 7 -1 12 8 76 54 67 51 62 50 49 48
62 95 113 104 98 98 100 107 97 88 73 63 61 63 63 58 58 53 50 49 47 51 47 41 28 14 2 -6 -18 -33 -26 -3 18 9 47 82 75 72 54 61 53 52 52
115 103 91 90 86 94 105 107 92 87 74 68 70 71 65 56 56 54 48 48 46 56 52 45 33 26 19 12 1 -18 -6 12 46 14 50 59 89 76 48 61 54 48 51
108 95 91 86 106 89 93 94 89 85 79 80 85 78 69 61 59 55 48 49 54 61 54 49 45 27 14 7 4 -6 20 56 79 87 76 68 81 68 75 55 45 37 41
72 73 106 102 102 95 93 76 84 90 87 87 89 87 84 68 54 53 49 51 58 56 46 42 41 31 16 5 4 2 28 87 138 112 91 126 96 97 60 78 75 39 37
95 61 96 101 104 118 110 110 93 89 94 95 99 91 74 67 55 54 57 79 77 68 57 44 38 28 20 14 9 7 48 98 127 107 110 133 114 106 77 73 63 49 57
105 84 81 106 110 120 126 134 115 96 89 81 83 73 58 46 44 49 66 87 84 77 78 59 42 32 30 27 18 60 42 102 135 122 104 109 121 93 43 51 56 45 85
159 129 112 125 113 97 146 129 116 104 89 80 67 63 50 29 53 83 90 104 93 120 90 70 56 42 28 26 25 39 28 93 135 121 126 135 118 100 92 79 50 48 96
214 166 143 154 118 85 136 93 92 94 99 82 80 80 74 40 59 121 98 101 79 70 52 53 33 35 31 40 53 49 68 129 149 142 130 159 148 130 94 84 70 101 107
226 190 202 181 127 58 125 81 76 88 42 57 52 63 61 58 74 111 102 92 91 101 77 62 39 45 41 57 74 71 98 111 157 188 176 172 145 138 128 126 129 130 150
204 223 192 226 164 56 73 95 92 79 108 98 103 124 147 115 113 111 99 81 58 67 135 121 77 93 95 110 99 91 123 137 200 182 206 210 193 178 169 157 178 188 178
251 206 219 230 254 210 164 205 203 216 137 151 153 171 167 152 125 119 107 67 29 36 119 163 186 205 173 152 125 106 121 143 194 218 233 262 239 215 203 203 206 167 162
271 328 357 343 339 344 260 178 201 195 217 237 164 151 158 148 139 140 128 91 58 65 102 166 219 248 221 178 148 121 149 158 180 276 296 270 263 241 229 209 189 166 158
317 392 336 380 401 356 284 239 193 163 216 217 258 265 182 132 132 137 122 105 90 79 108 167 193 221 240 202 156 161 177 192 200 317 330 310 298 290 294 277 250 209 196
197 245 389 389 344 291 249 186 168 181 175 173 190 214 211 179 144 136 141 120 113 106 108 138 187 206 226 237 206 216 225 222 261 311 362 351 327 341 330 329 306 273 237
267 214 224 257 244 192 164 140 150 138 138 155 161 162 168 173 154 141 133 141 138 162 157 160 174 224 243 266 237 286 315 322 287 321 408 430 371 370 347 334 327 307 281
343 363 366 357 378 248 160 145 156 188 211 190 180 155 124 111 102 100 107 113 113 130 156 161 180 223 226 272 252 340 382 426 401 414 405 429 428 456 398 361 334 331 323
416 437 398 395 410 411 355 270 224 193 174 201 194 127 101 75 62 65 65 77 102 132 136 133 152 171 221 282 293 277 305 358 379 388 339 420 436 437 454 439 383 399 388
506 485 376 306 372 388 359 273 224 223 185 153 152 161 131 75 45 57 72 86 113 130 141 156 153 161 195 207 287 319 319 284 391 402 412 374 380 419 448 485 505 516 489
417 399 326 258 284 283 267 243 219 210 201 191 170 149 142 133 134 103 89 100 106 129 143 161 171 181 206 215 217 260 309 353 340 371 429 408 380 422 521 528 524 577 594

GFSSE_con_3kmhel_222.txt.gz
Helicity
-39 22 18 73 91 90 100 99 73 48 41 46 48 58 65 69 66 64 62 65 66 66 56 49 42 33 32 28 27 26 27 25 26 31 32 38 40 26 20 14 5 -8 6
98 52 43 87 117 87 98 105 88 62 53 51 50 53 60 66 64 62 57 57 50 54 48 43 39 36 34 35 42 37 34 35 42 41 46 38 32 31 26 17 5 -4 0
198 135 64 98 135 102 88 93 87 69 67 58 48 51 56 54 52 50 44 43 50 47 42 38 36 34 33 33 43 47 46 43 42 35 49 17 18 22 23 20 9 12 7
212 178 90 97 129 116 109 96 86 80 71 57 55 55 59 48 49 47 42 47 54 51 45 39 35 32 30 25 39 48 57 51 26 11 9 0 28 15 20 27 28 24 21
186 170 99 116 135 120 115 105 89 70 64 59 60 58 55 52 48 45 43 47 46 46 41 37 38 37 25 18 29 38 50 51 31 8 8 23 23 25 24 31 42 40 35
154 140 94 101 111 105 111 101 89 67 56 63 55 52 53 48 46 39 42 45 45 42 44 45 39 32 27 23 35 34 22 32 45 38 16 62 39 41 31 39 54 47 42
144 97 95 116 119 117 100 95 82 77 62 59 52 54 54 49 44 37 35 37 40 42 43 45 41 30 20 24 27 44 28 53 62 53 54 96 79 68 41 38 55 53 47
147 97 112 114 126 120 109 109 89 76 61 62 61 52 61 55 51 43 37 36 38 47 40 37 34 27 21 15 21 36 36 56 62 45 73 94 111 77 65 35 45 52 51
67 82 104 118 124 135 110 96 70 57 61 68 65 52 60 55 49 50 43 40 39 43 44 33 30 22 12 6 12 23 30 53 69 47 63 70 90 91 89 47 55 43 42
67 55 119 138 127 122 102 85 62 51 68 69 64 57 56 56 55 55 47 39 32 47 46 36 26 21 13 6 10 28 30 34 74 80 88 71 85 96 78 65 66 58 48
60 52 99 111 117 124 107 89 84 75 71 63 62 61 68 58 56 51 42 38 35 39 40 27 21 7 -1 -6 -2 21 60 62 90 95 98 117 120 103 79 82 79 78 62
69 43 96 107 137 134 110 102 96 96 89 69 62 67 63 60 50 49 35 34 34 35 32 25 16 5 -6 -8 -8 1 50 67 98 111 112 119 119 119 120 98 82 92 89
75 67 87 142 130 133 123 115 105 105 91 75 65 61 53 52 37 23 21 24 23 23 31 24 18 12 8 1 -3 28 48 57 77 84 123 156 156 136 113 105 95 105 111
81 67 77 139 157 142 143 127 105 99 87 74 56 64 73 62 52 24 23 14 12 34 47 42 27 21 16 14 8 25 53 54 74 80 103 123 123 129 119 92 73 77 130
113 81 76 109 150 159 169 125 113 85 92 70 70 62 82 73 69 66 45 52 47 69 53 44 35 21 13 18 18 34 62 67 88 109 108 104 104 107 83 72 73 91 124
169 134 131 128 114 130 124 129 99 77 68 72 62 52 63 53 64 75 65 65 71 78 55 45 54 46 19 41 37 45 57 89 106 115 122 121 119 107 84 61 71 88 118
225 240 201 124 111 122 87 79 112 87 104 78 39 41 54 55 74 88 93 93 81 71 78 81 74 52 32 28 46 69 79 106 115 135 149 148 135 120 114 103 97 96 118
248 246 220 132 98 121 96 93 91 106 95 54 80 68 61 85 94 113 126 106 96 99 74 95 118 105 67 80 81 68 97 116 137 156 194 199 190 182 154 147 130 130 122
234 273 215 188 169 167 171 218 210 192 161 87 84 107 95 91 117 127 119 111 110 104 116 117 138 179 168 155 122 124 116 136 154 200 205 210 227 216 207 152 142 162 154
346 304 270 278 300 277 296 281 271 262 228 200 173 131 100 117 127 147 118 106 100 102 112 149 162 166 188 201 190 165 152 142 181 251 241 258 268 269 261 244 215 198 156
338 315 346 398 363 394 357 299 270 239 211 199 174 171 176 158 152 141 127 123 110 109 105 129 160 175 171 178 216 191 163 148 158 284 320 314 306 300 296 290 281 255 212
237 320 396 415 390 357 318 284 242 223 178 166 157 150 156 151 155 150 138 145 144 134 113 131 184 198 202 199 233 256 233 210 205 302 335 369 343 354 325 319 324 303 284
354 371 410 384 348 334 320 297 277 279 240 232 226 194 171 157 163 156 140 134 134 137 144 147 177 182 194 196 204 286 303 309 293 298 351 398 393 422 375 368 364 346 351
450 445 460 411 345 289 271 250 206 198 222 203 153 165 145 109 100 93 86 81 79 100 92 93 97 131 153 164 164 157 195 310 296 314 311 306 351 395 396 406 410 399 405
532 523 487 480 449 387 315 267 245 270 221 199 216 202 181 147 100 75 71 80 91 111 121 132 152 160 165 163 174 170 188 203 291 291 268 324 344 375 408 427 439 438 431
601 569 508 506 475 411 357 290 259 245 209 190 183 167 150 144 160 180 164 162 182 200 227 252 261 247 224 195 216 238 250 220 269 247 283 255 296 334 346 403 427 478 507

GFSSE_con_3kmhel_228.txt.gz
Helicity
15 31 21 7 28 67 92 119 150 158 169 173 171 171 151 133 123 106 94 91 79 72 64 59 57 59 64 62 56 54 47 41 42 38 30 21 13 10 3 -1 -8 -11 9
110 70 49 32 46 71 90 97 114 114 138 129 136 131 125 114 107 108 100 88 84 87 81 71 67 68 68 65 57 55 55 47 37 33 32 33 29 22 16 4 -7 -7 8
129 105 90 58 54 85 87 79 89 82 103 105 108 110 110 110 98 89 89 85 86 90 87 82 82 80 80 68 54 57 52 42 35 37 37 6 7 28 25 18 6 2 9
145 113 101 87 68 100 95 79 90 98 101 102 93 94 90 81 85 78 77 76 84 92 91 85 90 87 82 66 52 56 50 47 34 27 19 10 17 26 30 30 22 14 6
116 108 96 107 90 112 114 101 104 98 98 94 93 75 74 72 71 74 71 67 66 75 79 79 95 91 81 64 60 66 53 40 27 25 26 22 5 15 26 29 25 25 14
118 111 98 125 123 117 115 122 116 107 98 99 96 85 68 71 65 68 61 57 46 53 65 71 99 94 87 75 71 70 55 39 25 29 28 31 15 25 21 26 24 22 18
114 109 129 112 114 110 139 145 124 116 105 99 98 91 72 73 61 61 53 46 46 30 42 51 77 77 75 68 58 58 49 45 35 24 43 78 50 52 36 29 19 24 23
143 131 106 93 102 137 143 134 117 112 97 101 91 83 76 73 65 55 52 42 44 38 29 32 48 57 58 63 61 63 48 31 35 34 62 63 85 88 81 61 32 15 18
106 151 105 116 123 105 118 128 109 100 103 92 81 82 74 70 63 56 51 41 36 31 37 29 31 43 48 45 39 40 45 38 36 42 65 55 75 74 74 64 43 31 25
112 146 115 101 131 75 128 107 103 101 100 89 87 96 74 75 72 60 53 44 35 26 27 28 15 22 39 32 28 17 21 22 28 45 54 55 79 74 75 63 48 35 27
56 68 67 88 114 83 134 103 111 93 97 91 99 105 85 87 77 66 50 46 42 33 31 27 20 14 24 28 21 7 6 19 39 43 44 55 77 79 72 66 55 44 37
-4 36 41 90 79 126 130 110 106 103 118 114 107 101 83 90 71 70 61 51 43 35 34 36 32 27 38 32 23 23 18 27 41 44 52 64 65 68 56 67 69 59 49
-11 64 49 65 87 124 123 119 119 108 110 111 115 100 85 99 89 81 67 59 53 39 46 44 46 41 40 44 34 28 25 36 47 50 47 57 67 70 76 71 64 60 67
42 74 58 82 107 98 120 129 120 117 111 106 103 103 118 113 97 88 78 67 68 62 55 51 46 43 39 34 40 40 38 35 36 42 37 40 46 43 67 64 61 61 62
92 102 77 91 91 107 132 129 132 122 121 96 92 96 130 120 92 91 78 79 71 58 58 64 62 59 59 53 54 55 53 46 41 40 47 37 46 42 44 47 48 41 37
115 134 100 86 87 108 131 121 139 128 121 116 113 102 109 102 84 76 74 67 59 57 58 69 72 69 63 66 68 62 45 50 52 54 61 65 57 51 49 40 39 30 22
129 151 131 110 134 132 138 117 126 135 123 108 106 109 110 101 83 68 66 52 39 64 61 60 62 65 62 66 58 51 60 58 68 65 77 85 90 80 76 70 61 41 28
149 121 174 157 180 170 139 131 134 126 127 110 105 109 107 94 77 73 70 56 59 63 65 61 61 58 60 71 61 52 61 71 69 61 76 95 112 124 110 96 76 68 55
137 174 183 189 168 155 143 125 110 123 111 113 110 101 90 90 91 80 71 68 86 83 84 82 78 86 70 73 76 74 71 74 90 100 96 106 126 134 148 130 112 92 79
160 161 174 209 176 206 209 143 136 127 97 116 109 93 84 93 107 107 98 90 113 106 89 98 98 99 96 80 66 65 88 101 101 120 111 128 140 165 172 174 161 146 102
189 185 219 254 251 284 245 193 149 126 106 106 109 87 87 99 99 115 127 119 130 121 110 89 103 94 103 110 108 106 105 125 124 130 160 163 184 187 188 187 194 204 169
189 226 259 258 334 343 285 246 237 222 163 167 170 158 111 102 122 133 125 122 125 129 120 125 128 113 99 94 106 112 95 127 131 123 153 138 134 160 182 180 202 212 217
163 260 297 358 377 355 317 375 353 328 306 287 282 247 174 154 183 183 166 166 153 158 160 152 139 126 120 113 105 122 151 117 136 115 140 118 114 118 133 145 177 191 210
144 210 282 375 356 332 362 355 368 348 401 341 286 247 249 234 233 220 207 218 204 239 238 227 180 164 157 172 136 126 156 171 147 136 166 149 128 119 124 120 123 151 171
149 191 262 289 314 350 372 384 396 384 378 367 355 322 305 306 269 243 219 186 179 158 153 166 167 186 185 174 170 196 192 193 185 209 201 174 215 154 130 169 169 190 192
267 284 296 255 248 335 373 412 406 377 354 355 304 329 302 295 268 246 222 197 176 159 154 148 158 180 175 198 209 215 203 200 205 183 178 169 139 146 189 165 160 155 148

GFSSE_con_3kmhel_231.txt.gz
Helicity
73 79 27 -14 -10 -11 106 119 134 165 194 169 163 144 139 119 103 94 83 73 63 62 59 61 59 54 54 50 44 40 34 30 24 17 21 17 17 15 11 3 -17 1 -4
164 93 59 18 5 3 92 120 138 166 182 179 144 131 125 111 103 89 82 70 62 64 65 68 70 69 58 53 47 36 30 28 28 22 17 19 15 18 17 11 -5 9 -2
195 129 81 41 17 37 64 90 121 146 155 150 124 114 107 98 89 88 73 62 59 60 65 67 69 67 65 54 44 40 33 30 30 23 7 2 9 9 16 11 13 12 4
223 156 103 68 41 52 49 69 88 106 111 117 117 105 86 87 77 78 72 56 54 57 66 68 69 66 67 56 43 37 39 33 29 25 13 8 4 8 10 13 14 12 7
175 121 107 104 72 61 71 62 78 87 101 105 110 102 86 74 74 59 66 55 49 51 61 66 65 58 57 54 44 35 27 22 13 23 19 9 8 24 15 11 14 12 -3
106 83 108 120 93 94 83 66 73 86 109 106 101 88 76 70 70 52 51 61 58 60 50 50 57 55 53 48 41 31 18 10 14 12 16 22 10 21 24 16 12 12 6
129 118 102 112 124 121 107 93 89 92 104 106 89 84 77 74 67 58 40 59 67 66 62 46 46 51 52 44 36 29 18 12 15 16 21 34 19 27 27 16 2 3 6
155 147 107 126 134 127 127 118 105 100 104 104 84 85 88 82 77 64 48 58 64 62 64 54 45 38 42 47 35 31 24 14 23 13 21 42 55 48 44 27 8 -8 -11
119 151 135 124 113 101 118 131 119 111 107 90 95 93 94 91 84 73 61 58 60 59 61 55 52 52 36 36 40 24 17 16 27 19 28 33 48 43 45 36 22 9 -8
133 113 136 144 127 114 80 121 114 114 104 98 90 100 108 95 89 81 71 58 54 45 44 47 52 50 45 34 32 32 27 33 36 37 46 45 52 44 38 36 29 19 11
121 115 116 118 131 110 94 116 114 101 114 105 96 108 112 82 77 77 59 63 57 47 43 39 41 44 43 40 36 25 11 21 37 44 45 63 62 63 56 52 39 24 18
83 71 76 84 79 103 90 127 93 113 115 98 98 101 77 77 72 65 61 58 51 48 49 45 43 36 18 20 18 13 11 15 27 31 42 46 45 50 55 50 49 45 33
84 79 33 44 47 77 80 119 96 126 129 100 106 94 68 76 82 66 64 59 57 53 51 41 38 36 37 35 30 25 23 20 24 28 39 35 32 23 40 52 52 48 37
64 54 57 40 50 49 74 64 78 121 120 110 108 99 96 93 75 60 58 68 67 66 64 54 50 44 40 39 41 37 36 36 38 36 34 30 26 19 16 44 44 32 25
76 48 47 60 73 73 58 54 78 88 94 98 111 96 94 87 64 62 70 73 71 66 64 61 58 53 49 45 41 38 36 42 44 39 34 48 32 24 22 33 41 35 26
65 72 52 47 88 92 74 86 91 100 79 93 108 95 83 83 69 68 80 75 73 69 69 62 60 58 51 48 45 46 41 35 39 39 38 40 50 45 43 38 33 28 23
77 67 84 58 57 88 85 95 107 109 103 105 98 94 91 80 70 76 81 74 69 77 78 70 62 52 43 42 41 45 53 50 42 42 44 42 47 52 50 60 59 48 29
92 89 95 94 83 72 90 92 81 83 73 76 96 109 97 74 77 86 75 59 71 75 70 61 55 44 41 40 36 46 52 71 66 65 56 53 60 52 70 75 67 58 49
114 117 97 90 114 96 103 106 93 85 80 88 99 111 92 83 81 80 71 77 82 83 75 68 58 60 53 57 47 42 46 58 55 80 66 68 71 65 61 72 77 76 63
111 115 111 98 108 106 136 112 101 110 74 89 89 92 77 75 80 83 87 79 86 94 79 80 70 75 66 55 61 64 55 60 72 70 67 72 87 73 64 63 64 65 82
132 126 112 126 115 173 169 160 113 86 92 89 88 72 55 82 95 100 96 95 115 103 95 105 93 79 81 91 73 69 69 67 70 83 87 82 92 96 88 102 92 84 88
128 147 119 117 156 179 192 182 172 138 111 92 103 95 78 84 96 78 91 110 113 117 125 132 131 127 121 119 122 127 101 87 93 116 111 98 103 106 84 90 87 87 84
125 145 147 129 173 192 205 232 257 194 187 169 175 174 123 111 128 112 113 133 140 150 149 152 147 146 136 138 133 133 128 123 117 114 136 142 156 139 127 119 97 83 78
124 179 144 141 178 203 227 272 281 243 239 237 271 224 238 227 224 174 180 202 214 213 236 223 211 210 179 156 104 122 137 153 140 102 107 138 145 146 185 151 109 98 96
124 160 193 156 146 175 228 252 314 240 261 295 298 289 311 292 239 236 220 223 210 200 183 121 152 122 134 136 148 147 136 121 123 176 170 152 156 119 94 64 68 76 69
79 100 155 149 122 136 187 198 238 294 331 324 331 340 318 313 279 269 256 249 209 180 167 154 157 154 157 162 158 159 153 165 167 157 169 149 140 87 83 69 65 60 75

GFSSE_con_3kmhel_234.txt.gz
Helicity
72 95 66 21 -8 0 4 19 70 67 82 116 147 111 95 84 71 52 48 49 51 51 50 49 40 38 39 37 35 32 26 17 14 17 12 11 8 8 3 -23 -14 6 -7
126 106 73 46 14 16 35 48 85 93 98 149 149 111 89 79 73 63 52 52 50 48 45 46 41 39 41 40 35 33 25 16 12 7 11 18 13 11 11 12 19 0 -11
154 129 81 64 38 36 59 92 101 105 127 151 139 109 78 74 64 51 56 52 47 46 43 41 43 40 37 35 32 30 25 17 8 -9 -5 3 19 11 14 14 16 5 -8
180 117 87 75 59 57 61 110 115 123 146 135 124 100 85 66 53 45 47 56 50 43 37 41 42 39 35 29 27 22 24 17 0 14 -1 -2 13 14 10 9 11 9 7
228 95 95 73 74 66 75 108 118 127 131 121 109 100 81 77 63 48 38 58 61 54 49 37 36 34 31 24 21 16 10 -1 -7 45 -10 -4 15 25 11 -10 11 11 12
214 66 72 73 77 73 88 97 104 118 111 103 96 100 86 72 63 61 46 52 65 63 63 55 39 29 22 21 14 8 6 3 20 -4 4 24 6 32 20 9 2 -1 2
141 58 52 69 75 87 88 102 110 114 107 96 86 95 89 77 73 66 74 56 61 69 71 59 47 33 12 8 7 -1 1 7 31 -2 10 16 30 32 24 15 3 -3 -5
108 105 66 58 79 104 95 94 110 114 110 104 95 100 86 76 79 68 73 70 62 72 67 64 50 42 25 9 -7 -7 15 23 41 11 4 7 51 24 20 13 6 4 5
119 112 112 91 87 80 97 79 95 120 111 109 97 104 91 83 76 68 65 65 59 62 62 64 51 41 32 24 10 -11 9 23 32 21 23 24 63 36 25 20 18 9 8
131 150 124 113 97 84 70 76 110 110 109 113 99 107 96 80 68 62 57 54 57 50 53 59 48 33 26 17 6 -7 -6 39 42 25 31 45 59 37 37 33 17 3 -2
182 153 122 117 119 90 84 90 102 82 108 112 97 105 109 56 50 59 42 73 55 51 48 49 45 42 33 22 10 -4 -5 -6 -12 4 5 82 52 37 29 22 20 17 12
201 162 85 87 94 101 92 110 98 82 83 91 75 95 59 60 38 33 68 59 52 57 54 53 52 44 13 20 27 8 -3 11 2 12 25 53 29 17 20 22 20 13 5
146 127 81 93 88 93 92 101 97 69 78 71 60 71 48 58 66 49 67 57 49 46 46 45 48 20 49 33 36 30 31 17 22 28 66 59 29 10 -4 8 24 28 18
112 120 97 89 78 69 84 77 94 66 79 52 54 66 66 59 69 48 56 51 42 58 56 45 55 61 40 38 32 28 26 28 42 43 68 65 34 25 18 22 38 24 17
64 74 79 72 54 59 56 52 71 60 94 72 73 108 61 63 65 58 74 61 52 74 64 64 73 61 59 45 35 26 24 28 38 42 50 84 49 29 27 33 40 35 28
47 53 70 52 43 43 37 51 83 79 70 81 108 102 77 66 78 73 83 69 66 68 75 73 68 63 54 57 43 39 36 34 41 46 45 61 68 35 20 15 23 31 33
60 68 66 77 68 41 33 40 58 58 65 75 97 82 74 66 85 86 90 78 72 79 99 89 77 61 52 50 48 52 45 49 52 53 48 45 66 67 49 39 40 38 37
62 68 86 82 86 71 47 46 50 52 65 73 81 80 60 68 82 96 102 90 82 88 76 64 62 47 50 49 47 43 46 34 51 52 53 55 53 46 74 74 70 62 59
58 83 101 94 87 77 65 60 46 37 41 54 63 84 96 94 94 91 88 87 93 80 81 79 79 78 77 58 57 65 56 48 51 57 47 48 43 47 52 78 62 60 62
55 74 93 107 102 104 93 66 47 49 54 66 69 84 103 112 110 94 86 93 82 89 94 83 76 82 60 58 55 55 50 46 64 60 59 69 74 71 63 63 71 58 58
68 62 88 107 113 135 128 91 91 79 106 117 91 99 80 97 104 100 92 101 89 88 82 85 83 78 70 67 53 42 46 35 46 69 67 77 88 77 90 83 85 83 91
104 85 81 91 126 94 113 103 97 82 103 100 96 103 89 94 92 87 77 96 103 106 113 111 106 109 114 103 97 94 64 68 69 90 86 91 127 122 126 135 140 121 119
136 122 82 84 124 121 110 141 144 133 140 117 109 123 127 122 107 96 89 108 113 99 102 102 114 111 135 145 128 140 115 92 142 61 78 104 128 135 153 135 126 104 103
199 163 110 92 106 139 142 169 167 177 178 168 170 188 196 149 138 112 103 140 130 152 172 197 189 182 195 176 145 108 127 122 108 107 122 120 98 96 114 132 126 106 103
184 194 162 128 106 139 163 185 198 175 177 185 251 286 305 292 243 230 211 270 247 237 242 191 184 128 155 143 150 148 115 122 109 126 99 116 162 135 146 89 76 71 89
161 196 206 150 148 135 150 172 182 182 200 294 313 331 390 369 330 301 261 255 224 197 192 192 192 165 171 142 124 128 123 129 137 143 132 148 176 117 145 121 99 98 117

GFSSE_con_3kmhel_237.txt.gz
Helicity
162 84 52 52 9 6 26 25 22 38 42 66 62 73 61 38 35 41 42 37 36 27 26 27 25 26 28 27 28 27 25 25 12 8 11 15 16 18 22 37 113 12 26
253 91 70 65 39 27 41 58 55 55 53 76 81 92 70 50 44 42 45 43 35 32 33 30 29 30 30 28 28 26 23 11 -6 -8 -2 -4 14 14 23 29 33 22 25
212 113 76 81 63 44 53 63 78 72 69 85 87 103 91 59 49 45 36 40 36 34 31 30 32 32 30 26 22 23 19 2 -18 -17 4 4 18 17 22 25 24 19 21
172 112 96 91 76 64 73 81 89 90 83 87 93 91 89 74 64 50 36 27 36 39 37 32 30 30 26 21 19 15 11 -6 -18 50 100 68 32 19 18 20 25 30 24
150 132 120 97 86 82 89 96 107 99 102 96 92 84 86 77 73 64 49 23 29 35 43 41 35 26 21 15 12 7 -10 2 29 65 23 24 28 23 18 36 23 28 27
160 154 118 84 87 85 95 106 123 123 118 101 97 81 78 85 82 75 51 42 24 38 38 40 34 29 18 7 2 -0 -3 13 38 52 30 19 54 42 28 26 29 24 21
120 202 85 73 85 80 95 101 126 124 120 112 106 89 74 89 90 80 57 58 46 36 38 47 40 30 26 21 10 -6 -10 19 43 -12 20 64 58 47 25 18 23 24 25
105 157 78 66 77 84 87 98 113 123 118 112 109 96 82 86 89 77 60 55 57 41 36 42 39 25 14 12 9 -2 -8 16 36 4 1 85 64 52 35 26 15 11 23
116 73 68 52 72 107 93 95 125 117 108 105 103 100 84 75 77 72 61 51 51 44 34 37 39 25 11 -6 -15 -21 -35 28 37 7 19 73 74 56 37 29 20 18 14
94 88 90 72 76 84 66 115 120 116 104 100 98 98 81 68 62 60 60 44 49 45 40 38 34 25 18 9 -3 -19 -35 31 25 -13 29 68 57 49 32 23 17 14 10
97 127 142 110 104 101 84 100 115 107 104 105 90 94 82 46 46 63 28 93 53 48 42 41 37 25 16 14 11 -0 -13 18 -1 5 52 76 71 47 31 30 24 16 13
103 150 161 151 128 109 88 102 92 95 85 72 60 75 42 32 32 39 84 80 61 60 53 41 32 24 9 21 30 20 14 25 11 23 85 67 77 48 32 26 22 20 18
99 119 130 173 143 106 95 97 89 92 84 69 53 52 22 26 37 40 69 60 52 46 39 41 35 17 19 28 47 34 39 24 18 32 87 78 70 51 36 24 30 27 22
79 90 88 104 124 99 80 74 78 87 82 78 61 60 29 31 60 29 51 51 45 69 21 42 48 62 52 30 28 27 29 22 42 49 102 87 68 48 46 44 49 44 36
64 72 79 73 122 111 62 71 42 52 55 52 72 79 18 33 57 39 51 49 44 75 36 56 98 72 49 51 45 32 36 29 47 41 82 82 75 50 39 41 47 49 44
69 73 82 85 110 88 49 77 59 51 65 97 57 63 13 36 74 47 64 52 62 64 63 51 46 65 45 43 64 44 47 40 44 47 44 83 73 63 43 31 30 35 39
68 71 70 85 111 75 60 70 52 53 123 97 92 130 66 45 91 48 55 54 59 80 88 89 64 47 84 60 47 66 46 44 40 56 54 53 88 63 71 68 59 41 32
71 84 72 62 99 93 80 76 54 89 78 62 87 93 71 43 74 66 68 72 72 96 77 72 57 55 37 53 53 56 52 54 54 53 43 51 47 60 81 57 70 69 67
88 90 89 80 78 106 95 114 84 80 48 71 66 57 70 50 69 76 69 79 87 78 70 73 43 74 52 53 78 77 60 54 60 48 36 63 53 54 58 100 66 50 63
91 108 106 114 84 124 149 131 96 91 62 71 75 73 102 93 93 82 68 98 85 75 98 65 76 80 52 86 76 97 85 71 77 66 82 63 63 90 96 72 105 74 82
101 130 147 116 119 130 145 161 174 115 94 95 92 97 132 101 120 123 94 100 110 94 94 86 76 48 90 84 85 63 90 62 55 63 89 90 100 109 88 111 83 94 124
129 172 147 127 144 144 145 147 135 119 127 105 135 128 133 107 117 120 87 108 112 86 87 109 102 94 93 83 93 92 93 96 80 96 94 76 122 103 84 120 126 96 116
114 168 189 170 157 169 148 157 134 112 126 131 142 150 143 113 137 101 87 100 114 98 123 109 106 112 106 158 110 110 107 85 190 114 78 74 170 111 130 112 191 174 135
135 140 229 235 175 165 156 189 157 162 174 184 166 160 155 142 140 125 107 108 125 124 118 105 132 152 190 160 139 120 127 139 141 124 119 176 140 105 109 113 148 101 150
179 183 159 225 237 190 186 186 222 172 166 175 160 159 187 175 157 147 151 173 200 217 222 187 210 184 198 120 160 134 105 99 110 121 99 116 165 146 213 163 176 128 101
199 228 195 202 222 219 220 157 212 210 225 226 211 212 272 305 340 302 303 285 249 214 249 219 187 152 94 116 150 141 113 105 98 105 109 124 149 170 164 196 129 142 183

GFSSE_con_3kmhel_240.txt.gz
Helicity
122 95 75 81 53 24 20 32 36 21 12 23 36 41 45 36 29 27 23 26 24 16 21 20 19 23 29 32 30 24 12 -1 -3 -6 5 15 23 29 34 47 31 20 36
188 110 86 107 74 53 22 45 52 52 34 39 40 47 54 45 35 22 15 16 19 21 23 23 21 25 24 26 21 10 -3 -12 -17 -20 -28 18 11 24 31 26 24 19 32
193 146 90 109 96 76 51 54 64 62 52 45 54 49 62 61 50 34 17 5 14 20 26 28 24 23 27 23 15 7 -12 -12 -2 12 3 3 -24 19 25 21 21 24 32
165 171 106 95 106 94 81 60 74 64 66 62 62 62 67 75 60 51 34 17 9 15 30 28 26 29 26 19 16 6 -19 -0 3 45 70 30 12 16 21 18 34 37 30
123 166 114 105 104 99 99 84 73 74 79 72 72 77 71 73 65 55 40 27 16 10 22 23 24 26 22 16 6 -9 11 22 17 54 49 53 16 17 29 47 39 39 32
95 174 141 106 101 99 100 97 75 79 91 86 82 84 82 71 62 57 45 33 27 18 15 18 31 21 14 12 -0 -16 14 24 47 77 81 98 44 44 34 26 24 35 42
75 201 177 112 97 90 94 98 80 79 95 95 87 82 88 73 60 57 47 35 25 26 17 11 12 16 10 -9 -15 -9 14 27 82 117 74 57 60 61 39 33 28 29 25
228 174 172 102 98 87 101 106 85 82 91 96 86 84 85 70 52 49 45 41 32 27 18 4 5 10 12 3 -17 -13 6 26 61 56 69 68 60 76 51 36 27 24 31
251 181 155 71 73 86 100 108 97 92 94 96 95 90 72 67 52 48 46 45 38 27 16 9 3 5 7 4 -5 -14 -8 6 13 35 63 90 75 77 62 51 45 31 25
155 112 131 72 77 87 93 102 100 101 107 96 100 93 66 63 54 45 48 45 43 34 22 11 7 1 3 5 -4 -6 4 -2 20 25 120 90 77 75 59 48 36 32 29
120 52 91 84 102 108 108 96 111 114 112 111 106 97 77 47 41 44 19 64 52 42 31 22 12 7 6 9 17 23 9 21 48 36 70 67 73 90 70 54 49 43 39
105 87 112 125 126 134 136 132 123 113 112 100 87 86 45 39 29 31 69 67 60 48 36 30 20 12 6 2 17 7 18 32 -0 72 52 50 63 85 71 55 43 35 31
120 111 156 161 158 147 168 179 152 124 104 95 76 80 21 20 21 80 115 70 60 49 36 27 13 5 18 28 63 34 32 26 36 93 76 56 74 82 62 50 49 42 35
137 113 163 171 176 137 203 182 165 129 108 102 75 77 19 5 69 74 80 70 59 62 23 61 33 30 17 19 17 26 22 -11 26 82 91 81 76 76 62 55 53 59 51
144 120 142 152 150 124 183 167 155 120 103 83 85 93 36 16 115 65 58 71 32 82 19 49 39 43 54 34 53 24 28 24 26 60 87 62 64 70 61 53 52 56 50
165 169 95 174 171 96 108 177 130 101 86 62 73 96 45 7 96 105 16 80 46 64 32 47 102 82 71 31 62 36 35 31 39 30 90 70 57 63 62 60 55 50 44
201 212 131 163 201 126 74 169 113 91 119 69 66 103 78 7 67 107 37 78 29 31 84 103 58 88 75 59 77 81 43 39 16 56 38 97 83 61 77 58 52 64 56
222 236 172 156 180 163 93 133 168 128 120 223 177 219 108 72 82 106 74 90 35 62 110 99 72 55 81 57 49 71 63 47 35 29 58 43 78 80 76 58 54 40 39
221 246 214 145 150 193 153 124 163 108 219 219 176 187 200 147 81 116 85 99 63 83 115 58 71 71 53 29 48 44 87 69 70 60 67 56 44 84 85 89 65 36 32
190 303 260 203 171 225 182 137 173 197 207 171 123 167 124 123 94 120 115 115 121 97 78 95 90 70 67 50 48 108 97 74 64 68 62 72 78 84 103 57 77 59 66
193 276 311 272 232 252 205 183 204 236 226 178 145 112 144 133 112 134 152 134 178 105 74 125 100 87 52 94 104 54 90 67 82 74 105 118 158 124 100 97 106 97 73
215 331 404 325 312 261 246 226 255 251 240 181 176 126 140 173 119 163 171 153 172 104 78 91 93 120 105 75 115 119 112 109 78 94 92 82 162 138 130 138 157 208 187
231 293 416 460 336 289 255 254 234 243 215 155 122 149 193 225 166 185 172 114 135 94 84 119 146 119 105 148 134 124 129 127 154 91 137 194 161 161 154 162 208 184 191
290 360 412 450 386 303 280 260 216 329 319 302 234 243 272 276 227 198 152 89 131 144 135 116 129 104 131 159 170 160 155 147 128 145 246 264 193 183 231 219 222 214 180
227 301 365 414 412 358 321 256 281 269 267 314 279 288 267 258 217 196 145 123 165 201 191 217 220 222 209 209 168 165 137 144 163 180 160 184 257 286 246 256 246 233 251
256 331 354 350 331 390 392 285 284 257 292 316 312 308 300 248 225 172 171 182 318 353 283 236 224 214 211 181 159 131 155 178 147 150 154 165 189 179 236 252 193 201 240

GFSSE_con_3kmhel_243.txt.gz
Helicity
74 28 16 67 60 39 21 12 20 13 11 12 15 24 35 43 47 46 39 31 26 17 17 11 11 24 27 30 32 31 28 23 19 18 20 20 25 29 25 19 12 15 23
210 70 25 75 88 65 34 34 32 30 32 27 29 22 25 27 31 30 23 14 11 17 17 10 17 21 26 19 15 17 17 13 3 -1 13 20 20 25 26 23 13 15 21
223 110 32 93 110 90 60 42 42 42 50 39 40 27 21 20 25 23 20 9 4 8 14 15 15 15 16 7 -0 10 19 15 7 28 -2 -16 -14 20 29 31 27 33 32
234 136 61 109 121 111 83 55 52 52 61 56 48 38 24 26 26 30 24 13 5 7 17 16 16 14 11 2 -3 -1 14 1 21 36 -0 22 9 26 24 25 32 33 34
231 140 97 110 128 120 97 73 58 62 61 65 49 46 35 35 37 31 25 17 14 9 11 11 14 13 3 -1 8 19 3 16 37 21 42 16 -6 25 33 35 34 35 31
214 152 105 118 129 116 108 86 69 69 62 63 50 43 41 38 36 32 22 13 7 13 4 -1 1 3 3 -6 6 18 6 32 61 58 43 34 16 53 41 34 34 37 38
212 170 136 125 117 114 114 92 79 74 68 65 56 46 40 41 38 33 26 17 11 9 8 -4 -9 -11 -6 -7 2 12 18 43 69 41 52 30 21 63 51 39 31 29 29
221 202 187 142 113 105 111 105 92 76 71 64 62 54 37 44 45 35 32 28 19 11 2 -0 -6 -9 -11 -8 -1 12 32 49 39 4 33 37 52 70 64 52 35 28 29
191 250 224 147 95 88 85 106 93 83 75 75 59 51 42 45 46 43 37 34 25 18 10 3 -5 -8 -7 -4 7 16 30 34 14 -8 48 71 93 91 89 73 58 43 36
179 219 219 157 101 79 70 96 101 92 80 82 64 57 51 54 50 50 42 35 30 24 26 17 9 2 9 14 24 27 29 15 2 26 107 73 76 71 71 63 51 42 38
207 197 194 154 118 86 89 88 97 102 91 93 73 70 72 54 43 47 38 40 33 26 29 21 15 8 10 19 27 24 22 17 36 31 56 72 53 58 67 65 51 43 39
187 139 154 134 112 117 115 122 133 131 115 92 75 75 57 53 44 34 38 42 41 32 29 19 15 12 1 -8 9 15 11 23 32 57 49 52 50 75 72 67 56 48 43
151 122 124 141 141 155 157 153 164 170 137 105 83 80 40 40 36 44 54 40 34 32 14 4 -1 -6 -1 10 24 14 14 36 50 65 46 48 50 72 76 73 65 60 56
191 143 154 154 165 173 192 178 173 186 149 123 78 71 48 49 66 74 76 57 49 34 18 5 1 -9 -12 -0 7 17 26 -6 43 78 54 47 43 66 73 64 54 58 53
201 168 186 208 199 196 204 219 186 175 153 127 97 65 42 47 76 86 73 62 54 43 19 13 3 2 -23 -11 16 22 12 26 46 44 45 35 43 54 58 57 56 58 53
225 200 199 218 227 214 178 195 193 171 157 144 109 73 38 47 66 103 85 60 36 32 15 15 30 -3 -19 7 43 17 1 26 26 68 54 45 36 45 46 41 37 40 43
247 237 253 244 197 181 195 156 171 183 171 124 123 100 58 47 98 73 107 77 34 51 53 8 49 44 35 62 53 34 29 32 29 30 55 48 49 48 50 47 31 30 31
301 295 280 278 220 114 152 147 148 154 154 129 134 123 63 31 96 117 84 92 41 67 71 77 86 71 69 73 69 53 53 44 29 36 33 67 61 68 49 73 62 32 12
420 381 312 282 302 159 102 169 133 125 144 127 170 170 93 26 92 147 110 86 67 73 96 116 98 84 80 72 57 51 50 44 31 32 32 37 77 83 82 84 64 58 32
403 423 374 348 308 235 121 145 156 136 133 211 255 244 206 123 108 172 142 124 110 114 102 104 95 81 70 55 44 36 67 40 48 42 53 75 73 129 153 78 42 5 37
374 406 416 367 305 325 237 140 206 187 252 263 302 278 218 220 186 200 143 138 140 155 127 105 99 90 75 94 117 95 82 40 24 53 87 98 117 107 115 133 144 186 181
379 355 448 421 362 313 327 209 212 265 279 291 271 236 173 196 175 201 184 149 180 171 124 105 119 125 88 136 107 90 94 103 88 110 129 138 198 233 228 223 254 253 230
377 388 431 462 434 344 313 322 279 291 284 257 206 195 216 157 158 166 180 189 185 193 133 100 121 134 126 144 113 137 149 124 138 127 129 168 232 254 254 273 275 256 248
371 434 474 457 483 451 399 360 338 309 340 275 273 275 224 192 169 164 163 194 191 185 135 114 115 136 157 155 161 155 159 161 165 192 205 261 297 290 266 277 290 209 218
398 462 536 523 499 562 530 438 387 318 258 294 310 291 248 217 190 185 183 186 180 159 158 192 194 165 178 198 216 210 201 188 189 184 294 361 358 288 258 224 193 227 319
429 534 553 604 548 532 529 498 405 324 306 361 342 339 312 314 254 229 232 184 135 172 230 248 210 209 202 205 236 175 211 238 188 188 224 261 256 262 228 206 262 339 353

GFSSE_con_3kmhel_246.txt.gz
Helicity
-5 -10 -14 65 71 55 36 31 39 53 55 54 54 54 58 60 65 71 69 62 46 35 30 21 18 21 25 39 47 40 33 20 20 12 18 27 24 21 11 5 2 -2 15
104 13 18 81 87 62 37 34 41 52 53 46 41 46 46 49 56 60 56 45 33 28 24 19 21 15 32 41 37 33 22 5 9 1 7 13 15 16 11 9 9 12 18
141 42 41 104 109 84 53 48 45 49 49 49 39 31 32 36 35 32 30 25 19 17 18 14 4 9 31 33 30 20 2 -1 21 -8 5 -36 -11 19 19 13 16 21 23
149 66 48 118 121 103 75 66 48 45 42 41 45 32 22 21 23 19 18 14 12 9 9 1 -4 4 11 18 19 16 15 12 35 22 19 7 7 25 25 26 26 25 24
170 102 65 124 125 115 90 79 62 46 39 36 40 34 26 20 17 20 14 9 4 9 2 -4 -10 -15 -14 3 -2 8 21 37 39 25 19 4 -10 28 31 24 23 23 24
166 131 111 120 122 112 100 89 72 55 36 30 33 34 28 25 21 22 18 14 9 2 8 -2 -17 -29 -24 10 5 21 31 55 25 37 46 21 14 59 52 41 35 32 26
204 175 129 128 125 113 99 94 77 69 42 33 33 35 26 35 27 20 18 22 16 8 2 1 -17 -27 -16 23 24 26 30 33 44 71 56 45 43 79 71 55 46 41 39
273 186 144 141 133 114 105 90 80 73 58 37 33 43 31 36 26 22 22 27 26 21 11 3 -14 -18 -2 18 31 37 28 30 -6 38 43 39 63 73 66 52 36 28 28
269 240 195 172 132 107 100 93 81 79 73 50 39 41 41 36 36 30 28 23 31 21 19 13 4 -5 -6 10 33 45 45 21 -13 18 49 41 51 60 60 62 49 38 32
232 235 229 183 140 103 86 89 89 94 82 65 52 40 49 41 44 37 32 24 25 22 19 10 5 -0 -10 15 27 37 44 18 8 28 63 42 51 53 56 58 57 43 35
213 236 247 215 146 113 113 74 90 97 93 77 66 58 51 37 35 42 30 29 22 23 21 12 8 4 -3 15 29 38 41 25 -3 6 30 48 38 43 46 48 49 41 33
200 230 256 217 164 132 111 82 108 109 110 95 72 67 43 42 44 37 29 29 26 19 18 16 11 2 -8 13 27 29 12 29 10 23 24 50 37 50 51 49 51 45 35
173 197 206 212 144 144 140 118 122 142 142 111 87 73 56 48 56 40 30 17 18 12 1 3 1 -8 -7 -1 9 20 12 40 18 40 48 33 23 47 56 56 57 52 45
162 155 157 157 168 148 166 148 148 153 157 123 94 82 80 68 58 48 41 19 19 8 7 4 -0 -3 -12 -14 -2 -9 -0 24 4 43 45 27 22 48 55 57 56 54 51
174 143 144 146 158 207 186 181 179 150 150 117 106 85 77 84 59 55 34 36 18 14 8 1 -10 -25 -26 -33 -28 -3 18 23 37 29 29 19 22 31 41 46 41 47 45
165 153 173 177 173 199 182 191 192 188 149 135 111 83 80 87 72 53 45 39 33 21 23 5 -21 -31 -28 -0 2 -16 -0 27 36 39 33 15 19 22 26 25 23 28 33
173 206 189 211 230 206 192 196 186 186 166 136 110 92 88 89 89 73 60 40 21 27 27 15 -2 -10 -6 -12 -3 4 11 8 36 32 24 31 38 35 38 29 30 18 20
226 205 193 198 245 260 221 202 163 160 168 144 114 98 94 94 94 97 82 54 23 50 37 41 26 2 3 19 30 20 20 25 19 48 49 32 43 58 61 65 104 55 31
267 251 204 211 212 289 270 224 152 129 137 155 138 108 83 107 106 113 90 60 46 48 48 46 26 41 57 47 46 45 44 32 11 22 23 52 68 72 77 90 41 55 104
308 305 299 284 242 223 270 222 149 101 75 131 149 130 105 100 98 95 91 79 84 90 50 75 81 80 100 85 72 61 28 32 4 22 14 68 82 77 95 87 144 209 227
331 370 360 332 303 261 215 261 174 137 129 115 135 153 98 101 103 80 82 69 126 136 127 125 119 105 117 96 107 81 56 20 23 23 61 95 98 159 191 219 234 232 283
382 391 402 396 400 330 239 240 251 174 146 129 161 169 118 86 115 121 131 126 121 142 120 143 159 150 124 126 129 129 83 43 45 63 99 123 179 270 307 304 278 268 273
343 442 417 448 424 381 316 288 303 324 254 217 189 160 199 177 179 154 173 197 161 155 145 163 164 155 172 144 122 121 113 92 135 147 217 276 312 382 341 308 301 297 314
382 402 503 460 469 417 412 389 329 335 331 247 255 232 247 237 225 219 205 206 186 169 164 154 168 167 189 199 165 144 149 130 165 203 286 350 381 380 308 297 299 303 299
377 440 525 485 497 486 516 467 450 328 274 339 303 286 270 248 204 215 217 220 219 188 178 160 170 185 194 205 200 195 197 189 209 230 283 324 397 436 385 300 279 280 289
393 405 525 570 535 528 552 516 466 377 345 357 364 337 316 302 221 183 191 162 215 213 207 165 169 181 183 204 202 210 257 247 211 243 299 365 408 434 360 326 323 333 323

GFSSE_con_3kmhel_252.txt.gz
Helicity
84 57 44 66 103 176 185 181 177 211 225 226 223 204 182 148 123 84 56 39 42 49 50 44 38 32 33 28 16 11 3 -7 -9 -7 -0 -4 -2 -11 -13 -21 -29 -3 -12
166 76 32 72 129 158 159 163 168 173 180 190 185 179 153 130 99 67 43 39 50 56 53 51 45 37 38 26 16 1 -3 -10 -18 -17 -16 -6 -5 -4 -6 -15 -15 9 2
252 87 35 45 138 146 138 144 146 142 144 144 137 129 120 98 77 57 44 50 60 58 58 55 43 37 23 9 -5 -4 -13 -11 -15 -20 -19 -32 -34 -4 -1 -10 3 1 -2
260 126 41 37 116 143 112 116 113 107 102 105 93 85 75 68 59 55 54 56 62 56 58 51 39 29 15 -5 -4 -6 28 25 18 -17 -10 15 -24 -8 -6 3 3 2 -6
232 147 66 62 67 125 102 108 94 87 89 86 69 57 50 48 50 55 61 59 56 53 57 52 39 25 -2 -15 -17 34 33 26 15 -26 -22 -8 -4 -7 -2 1 1 4 2
230 148 96 85 68 108 127 109 103 93 77 76 62 47 48 44 49 47 50 52 57 42 47 47 39 12 -18 -32 -49 9 18 18 15 -16 -25 27 21 10 8 3 4 9 7
225 173 111 86 100 117 123 123 118 103 88 82 69 50 46 46 43 38 30 28 43 47 42 35 29 6 -14 -27 -42 -20 -21 22 8 4 1 6 8 17 13 9 11 10 11
286 196 137 91 112 114 108 108 113 102 93 77 64 48 46 47 37 32 25 10 15 32 39 28 17 18 5 -7 -17 -28 -26 15 7 8 4 4 16 21 18 12 12 12 17
238 237 157 113 120 107 105 94 101 98 83 69 64 48 44 37 34 23 24 20 9 12 22 17 18 23 27 17 15 4 -1 13 12 6 16 3 26 28 21 16 17 17 19
251 233 201 178 151 116 93 90 94 92 78 63 69 56 44 33 31 21 16 17 18 7 9 13 18 33 45 29 37 30 28 16 12 15 6 4 30 30 23 20 20 18 19
232 224 226 222 190 161 113 75 94 91 78 68 66 66 55 25 21 21 8 17 20 14 11 15 20 40 46 32 37 42 36 11 16 10 5 32 32 30 25 24 21 23 23
197 185 233 232 222 192 155 126 102 100 102 79 70 64 53 37 26 18 14 20 22 23 24 21 20 32 41 35 37 49 34 21 17 14 2 36 25 30 31 25 23 24 28
253 243 211 233 250 246 217 180 162 144 131 93 78 70 66 59 43 30 18 11 11 19 12 14 19 22 30 46 49 36 31 37 26 14 5 36 27 27 28 26 24 22 25
247 239 234 269 294 255 265 231 191 165 142 109 70 86 101 72 46 32 19 15 14 15 16 8 11 21 28 39 56 57 43 37 39 18 7 28 18 10 22 22 19 21 17
212 236 245 315 326 298 281 259 203 174 143 115 87 77 106 81 46 39 31 16 13 20 16 14 14 18 32 35 56 58 46 40 49 13 3 20 12 -1 8 22 22 29 24
205 221 252 269 297 308 295 260 223 166 159 117 101 91 93 92 65 44 44 27 14 8 17 23 30 25 27 28 47 56 49 36 44 26 7 9 7 -6 -10 -5 13 26 18
210 254 246 282 288 265 251 231 203 161 155 129 115 115 104 89 85 61 47 42 19 30 36 48 50 39 30 28 28 53 47 33 22 -2 -2 -3 12 1 2 5 30 57 66
266 245 264 252 213 225 225 234 209 169 154 139 132 145 128 99 82 87 51 37 38 52 52 55 59 38 28 18 10 26 40 22 23 20 19 15 20 16 36 53 65 101 93
231 258 232 238 200 200 193 197 194 170 158 157 156 149 145 126 95 94 61 32 65 58 51 55 64 43 32 13 -2 13 22 32 36 35 33 28 33 49 87 137 137 123 179
171 217 249 242 212 179 198 172 155 162 158 173 152 140 155 147 127 107 77 62 80 73 60 74 68 59 47 23 34 45 61 74 63 60 51 67 77 127 169 181 244 255 275
157 210 213 242 214 228 204 201 181 163 185 193 176 147 157 162 147 141 96 80 100 95 72 79 90 74 54 73 89 87 111 120 139 113 87 112 159 189 253 272 298 311 322
165 190 201 209 260 246 236 213 226 244 200 241 244 201 189 179 162 162 143 110 113 113 79 86 106 112 69 129 147 118 96 105 180 190 192 190 215 232 297 340 356 380 367
164 175 207 204 253 238 202 221 256 207 192 194 167 177 172 197 192 165 167 154 151 132 84 92 114 118 139 144 159 151 128 108 152 161 261 264 280 311 334 355 380 367 327
180 197 225 229 252 248 261 241 262 288 211 169 227 240 206 207 216 210 201 177 170 155 106 101 124 125 154 189 166 144 175 154 155 143 211 283 340 343 352 354 373 346 326
198 220 273 287 305 301 322 294 286 241 208 190 193 194 259 220 223 246 247 236 187 187 132 127 157 164 190 226 254 238 244 265 244 183 205 255 326 337 334 354 346 328 332
202 259 297 336 333 377 367 352 328 260 263 273 228 219 227 219 191 209 254 259 226 196 184 163 155 187 183 193 236 286 304 290 283 243 244 289 307 335 369 370 372 358 346

GFSSE_con_3kmhel_255.txt.gz
Helicity
101 105 41 -15 40 100 164 199 217 208 194 219 228 186 150 119 107 83 56 42 38 43 48 46 37 33 22 12 9 0 -2 -5 2 5 0 -8 -2 -15 -15 18 18 -6 -10
190 112 51 8 10 91 174 197 209 215 214 241 207 157 126 108 90 69 56 45 47 51 55 50 35 28 16 7 -2 -5 -6 -9 -5 6 -13 1 14 -6 3 30 17 -4 -8
222 129 57 4 10 74 156 179 199 206 209 200 176 152 119 91 80 66 56 52 50 55 56 43 35 25 10 3 -10 -10 -7 -10 -19 -17 38 27 20 -15 -18 28 3 -14 -14
225 138 60 4 7 46 124 143 161 166 161 153 145 130 109 83 77 66 48 53 55 53 51 41 25 12 2 -11 -14 -1 8 0 -17 18 28 26 16 5 -8 -18 -18 -12 -6
172 133 74 26 24 15 101 119 133 140 135 125 116 100 86 74 65 61 48 54 59 53 48 35 15 1 -16 -27 -31 -19 16 7 -13 -21 19 37 38 7 -4 -10 -3 -2 -3
142 109 104 35 29 28 69 106 106 128 127 114 91 81 60 58 44 48 48 59 63 54 44 32 13 -9 -37 -51 -49 -46 4 6 1 14 -20 24 -20 -5 -4 -7 -8 -2 1
141 101 114 59 51 52 48 68 88 106 114 102 77 65 45 41 36 31 29 40 49 53 43 27 2 -9 -29 -45 -41 -34 4 11 20 6 -8 -19 -15 -8 -3 -5 -9 -4 1
200 125 115 84 76 63 35 49 69 83 91 79 63 51 45 36 28 22 14 20 25 34 32 28 6 -4 -17 -21 -23 -17 8 8 3 -4 -7 -5 -6 2 4 3 -2 -4 5
222 178 131 72 80 82 56 63 69 73 77 73 64 51 43 36 20 16 19 21 24 23 30 31 18 11 4 5 0 2 5 10 11 -1 -3 -3 3 13 16 10 6 6 10
193 158 151 102 78 65 70 80 87 72 77 77 65 54 45 38 16 5 11 16 24 32 37 44 34 31 23 16 10 15 15 16 12 6 1 8 19 28 22 18 15 14 20
134 141 135 151 110 99 104 70 77 77 77 87 67 55 45 22 18 13 -11 9 20 39 46 52 50 35 39 32 24 21 6 5 13 2 4 23 25 34 25 21 20 23 25
172 168 145 155 137 131 139 109 78 68 70 61 60 49 25 18 14 9 7 5 16 32 49 44 54 46 29 31 26 19 9 12 8 10 8 15 22 29 24 25 25 23 18
263 226 184 182 174 168 178 155 129 98 96 58 56 44 32 35 25 20 18 11 2 17 24 35 38 26 32 36 32 28 29 25 29 23 28 12 14 18 20 21 19 23 16
231 224 220 192 227 215 202 177 168 162 114 114 59 57 58 49 36 22 14 19 8 1 12 17 27 42 41 36 37 32 30 33 32 33 36 15 10 10 18 15 16 17 11
113 228 232 237 229 253 230 221 194 170 148 123 93 64 55 44 34 34 20 24 21 15 15 19 27 32 47 41 40 37 32 39 45 39 32 15 6 5 12 19 17 7 17
110 146 264 261 250 288 281 251 230 203 176 132 107 80 54 47 36 33 33 27 27 23 28 33 34 38 51 47 41 33 31 30 45 47 39 20 -4 -4 7 21 24 26 29
113 125 256 294 270 279 260 260 223 213 198 152 110 86 48 43 44 46 42 34 28 36 43 49 52 49 45 45 41 36 30 24 17 20 28 16 12 16 21 25 45 37 51
124 132 153 228 285 289 245 252 254 192 223 166 125 105 50 37 50 46 47 40 46 51 55 50 51 59 54 46 42 32 27 17 19 10 17 28 38 38 41 61 76 94 105
104 144 168 179 225 270 247 251 246 229 211 172 144 103 64 50 61 54 36 51 66 68 64 63 59 53 54 46 41 42 33 36 32 25 23 36 59 55 66 119 114 149 184
72 134 146 188 221 238 255 263 219 214 169 158 126 59 76 72 70 70 49 51 78 71 73 75 68 51 49 47 64 86 87 94 73 70 75 98 108 123 116 159 165 196 242
82 110 158 179 213 271 263 244 215 191 170 142 108 58 85 99 89 87 72 64 78 77 82 84 85 72 66 78 97 121 140 136 138 143 125 120 140 161 187 212 261 274 272
102 159 156 157 195 248 240 215 217 199 156 171 153 117 107 105 122 116 97 85 98 94 87 109 126 136 96 107 128 120 106 113 159 171 149 160 157 162 202 240 293 311 271
90 147 177 197 210 250 204 199 163 137 123 110 81 133 124 108 120 146 124 112 114 120 113 116 122 137 146 132 115 135 125 98 165 159 192 194 223 239 251 274 310 337 321
133 111 163 197 221 237 222 193 180 188 189 120 129 197 192 118 112 117 127 133 138 152 138 136 129 138 144 162 157 133 163 133 147 141 183 219 255 277 286 302 334 336 338
138 181 167 186 198 252 216 191 194 121 86 100 155 158 177 143 131 155 179 180 153 170 172 162 155 151 161 170 168 198 173 182 180 154 153 182 242 252 282 300 309 290 281
137 188 219 199 206 234 255 218 193 137 119 112 120 181 184 161 155 150 157 192 199 157 180 189 175 167 180 168 135 147 189 216 215 214 210 205 221 218 264 282 302 282 279